When you browse on this site, cookies collect data to enhance your experience and personalize the content and advertising you see.
Visit our Privacy Policy to learn more. By continuing to use the site, you agree to this use of cookies and data.
  • In Romania
  • List of Countries
  • For 7 days
  • Water Temperature
  • Weather Map
  • Weather Widgets
  • user-avatar
    Login

    Hourly Weather Łask

    Today, 20 September, Friday

    Time Temperature Precipitation Wind Pressure Humidity
    00:00 +7°C° 0 mm 3 mps 753 mmHg 81%
    01:00 +5°C° 0 mm 3 mps 753 mmHg 83%
    02:00 +5°C° 0 mm 3 mps 753 mmHg 84%
    03:00 +5°C° 0 mm 3 mps 753 mmHg 85%
    04:00 +5°C° 0 mm 3 mps 753 mmHg 87%
    05:00 +5°C° 0 mm 3 mps 753 mmHg 84%
    06:00 +6°C° 0 mm 4 mps 753 mmHg 82%
    07:00 +6°C° 0 mm 4 mps 753 mmHg 80%
    08:00 +8°C° 0 mm 4 mps 753 mmHg 72%
    09:00 +11°C° 0 mm 4 mps 754 mmHg 64%
    10:00 +12°C° 0 mm 4 mps 754 mmHg 55%
    11:00 +13°C° 0 mm 4 mps 753 mmHg 51%
    12:00 +14°C° 0 mm 5 mps 753 mmHg 47%
    13:00 +14°C° 0 mm 5 mps 753 mmHg 43%
    14:00 +14°C° 0 mm 5 mps 753 mmHg 44%
    15:00 +14°C° 0 mm 4 mps 752 mmHg 45%
    16:00 +14°C° 0 mm 4 mps 752 mmHg 46%
    17:00 +13°C° 0 mm 4 mps 752 mmHg 50%
    18:00 +12°C° 0 mm 3 mps 752 mmHg 53%
    19:00 +12°C° 0 mm 2 mps 752 mmHg 57%
    20:00 +10°C° 0 mm 3 mps 752 mmHg 61%
    21:00 +10°C° 0 mm 3 mps 752 mmHg 65%
    22:00 +10°C° 0 mm 3 mps 752 mmHg 69%
    23:00 +9°C° 0 mm 3 mps 752 mmHg 72%

    Tomorrow, 21 September, Saturday

    Time Temperature Precipitation Wind Pressure Humidity
    00:00 +9°C° 0 mm 3 mps 752 mmHg 76%
    01:00 +9°C° 0 mm 3 mps 752 mmHg 79%
    02:00 +8°C° 0 mm 3 mps 752 mmHg 80%
    03:00 +8°C° 0 mm 3 mps 752 mmHg 81%
    04:00 +8°C° 0 mm 3 mps 752 mmHg 82%
    05:00 +7°C° 0 mm 4 mps 752 mmHg 80%
    06:00 +8°C° 0 mm 4 mps 752 mmHg 79%
    07:00 +10°C° 0 mm 4 mps 752 mmHg 77%
    08:00 +11°C° 0 mm 4 mps 752 mmHg 73%
    09:00 +13°C° 0 mm 5 mps 752 mmHg 68%
    10:00 +15°C° 0 mm 5 mps 752 mmHg 63%
    11:00 +16°C° 0 mm 5 mps 751 mmHg 60%
    12:00 +17°C° 0 mm 5 mps 751 mmHg 58%
    13:00 +19°C° 0 mm 5 mps 751 mmHg 55%
    14:00 +19°C° 0 mm 5 mps 751 mmHg 55%
    15:00 +19°C° 0 mm 4 mps 750 mmHg 55%
    16:00 +19°C° 0 mm 4 mps 750 mmHg 56%
    17:00 +17°C° 0 mm 3 mps 750 mmHg 61%
    18:00 +16°C° 0 mm 2 mps 750 mmHg 66%
    19:00 +14°C° 0 mm 2 mps 750 mmHg 71%
    20:00 +14°C° 0 mm 2 mps 750 mmHg 73%
    21:00 +13°C° 0 mm 2 mps 750 mmHg 74%
    22:00 +13°C° 0 mm 2 mps 750 mmHg 75%
    23:00 +13°C° 0 mm 2 mps 750 mmHg 75%

    Day after tomorrow, 22 September, Sunday

    Time Temperature Precipitation Wind Pressure Humidity
    00:00 +12°C° 0 mm 2 mps 750 mmHg 76%
    01:00 +12°C° 0 mm 2 mps 750 mmHg 76%
    02:00 +12°C° 0 mm 2 mps 750 mmHg 77%
    03:00 +10°C° 0 mm 2 mps 749 mmHg 77%
    04:00 +10°C° 0 mm 2 mps 749 mmHg 77%
    05:00 +12°C° 0 mm 2 mps 749 mmHg 74%
    06:00 +12°C° 0 mm 2 mps 749 mmHg 70%
    07:00 +12°C° 0 mm 2 mps 749 mmHg 67%
    08:00 +15°C° 0 mm 2 mps 749 mmHg 58%
    09:00 +17°C° 0 mm 3 mps 749 mmHg 50%
    10:00 +19°C° 0 mm 3 mps 749 mmHg 41%
    11:00 +20°C° 0 mm 3 mps 748 mmHg 39%
    12:00 +21°C° 0 mm 2 mps 748 mmHg 36%
    13:00 +23°C° 0 mm 2 mps 748 mmHg 33%
    14:00 +23°C° 0 mm 2 mps 747 mmHg 35%
    15:00 +23°C° 0 mm 2 mps 747 mmHg 38%
    16:00 +23°C° 0 mm 2 mps 746 mmHg 40%
    17:00 +20°C° 0 mm 2 mps 746 mmHg 45%
    18:00 +18°C° 0 mm 2 mps 746 mmHg 50%
    19:00 +16°C° 0 mm 2 mps 746 mmHg 56%
    20:00 +16°C° 0 mm 2 mps 746 mmHg 59%
    21:00 +15°C° 0 mm 2 mps 746 mmHg 62%
    22:00 +14°C° 0 mm 2 mps 745 mmHg 66%
    23:00 +13°C° 0 mm 3 mps 745 mmHg 67%

    23 September, Monday

    Time Temperature Precipitation Wind Pressure Humidity
    00:00 +13°C° 0 mm 3 mps 745 mmHg 68%
    01:00 +12°C° 0 mm 3 mps 744 mmHg 69%
    02:00 +12°C° 0 mm 3 mps 744 mmHg 69%
    03:00 +11°C° 0 mm 3 mps 743 mmHg 69%
    04:00 +11°C° 0 mm 3 mps 743 mmHg 69%
    05:00 +11°C° 0 mm 3 mps 743 mmHg 66%
    06:00 +12°C° 0 mm 4 mps 742 mmHg 63%
    07:00 +12°C° 0 mm 4 mps 742 mmHg 60%
    08:00 +13°C° 0 mm 4 mps 742 mmHg 58%
    09:00 +14°C° 0 mm 4 mps 742 mmHg 56%
    10:00 +14°C° 0 mm 4 mps 742 mmHg 54%
    11:00 +14°C° 0 mm 4 mps 741 mmHg 57%
    12:00 +14°C° 0 mm 4 mps 741 mmHg 59%
    13:00 +14°C° 0 mm 3 mps 741 mmHg 62%
    14:00 +14°C° 0 mm 3 mps 741 mmHg 65%
    15:00 +14°C° 0 mm 3 mps 740 mmHg 68%
    16:00 +14°C° 0 mm 3 mps 740 mmHg 71%
    17:00 +13°C° 0 mm 3 mps 741 mmHg 76%
    18:00 +14°C° 0 mm 2 mps 741 mmHg 80%
    19:00 +13°C° 0 mm 2 mps 741 mmHg 85%
    20:00 +13°C° 0 mm 2 mps 741 mmHg 86%
    21:00 +13°C° 0 mm 2 mps 741 mmHg 88%
    22:00 +13°C° 0 mm 2 mps 741 mmHg 89%
    23:00 +13°C° 0 mm 2 mps 741 mmHg 89%

    24 September, Tuesday

    Time Temperature Precipitation Wind Pressure Humidity
    00:00 +12°C° 0 mm 2 mps 741 mmHg 90%
    01:00 +12°C° 0 mm 2 mps 742 mmHg 90%
    02:00 +12°C° 0 mm 2 mps 742 mmHg 92%
    03:00 +10°C° 0 mm 2 mps 742 mmHg 94%
    04:00 +10°C° 0 mm 2 mps 742 mmHg 96%
    05:00 +10°C° 0 mm 2 mps 742 mmHg 94%
    06:00 +10°C° 0 mm 2 mps 742 mmHg 92%
    07:00 +12°C° 0 mm 2 mps 743 mmHg 91%
    08:00 +14°C° 0 mm 2 mps 743 mmHg 83%
    09:00 +14°C° 0 mm 3 mps 744 mmHg 76%
    10:00 +17°C° 0 mm 3 mps 744 mmHg 68%
    11:00 +18°C° 0 mm 3 mps 744 mmHg 66%
    12:00 +19°C° 0 mm 2 mps 744 mmHg 63%
    13:00 +19°C° 0 mm 2 mps 744 mmHg 60%
    14:00 +19°C° 0 mm 2 mps 744 mmHg 60%
    15:00 +20°C° 0 mm 1 mps 744 mmHg 61%
    16:00 +20°C° 0 mm 1 mps 744 mmHg 62%
    17:00 +20°C° 0 mm 1 mps 744 mmHg 64%
    18:00 +19°C° 0 mm 1 mps 744 mmHg 67%
    19:00 +16°C° 0 mm 0 mps 744 mmHg 69%
    20:00 +16°C° 0 mm 0 mps 744 mmHg 71%
    21:00 +15°C° 0 mm 0 mps 744 mmHg 72%
    22:00 +15°C° 0 mm 0 mps 744 mmHg 73%
    23:00 +16°C° 0 mm 1 mps 744 mmHg 74%

    25 September, Wednesday

    Time Temperature Precipitation Wind Pressure Humidity
    00:00 +16°C° 0 mm 1 mps 744 mmHg 76%
    01:00 +15°C° 0 mm 1 mps 744 mmHg 77%
    02:00 +15°C° 0 mm 1 mps 744 mmHg 80%
    03:00 +14°C° 0 mm 2 mps 743 mmHg 83%
    04:00 +14°C° 0 mm 2 mps 743 mmHg 85%
    05:00 +14°C° 0 mm 2 mps 743 mmHg 85%
    06:00 +14°C° 0 mm 2 mps 743 mmHg 84%
    07:00 +14°C° 0 mm 2 mps 743 mmHg 84%
    08:00 +15°C° 0 mm 2 mps 742 mmHg 80%
    09:00 +16°C° 0 mm 2 mps 742 mmHg 77%
    10:00 +17°C° 0 mm 2 mps 742 mmHg 74%
    11:00 +18°C° 0.1 mm 3 mps 742 mmHg 68%
    12:00 +19°C° 0.1 mm 3 mps 742 mmHg 62%
    13:00 +20°C° 0.1 mm 3 mps 741 mmHg 57%
    14:00 +21°C° 0 mm 3 mps 741 mmHg 56%
    15:00 +21°C° 0 mm 3 mps 741 mmHg 56%
    16:00 +21°C° 0 mm 2 mps 740 mmHg 55%
    17:00 +20°C° 0 mm 2 mps 740 mmHg 59%
    18:00 +18°C° 0 mm 2 mps 740 mmHg 63%
    19:00 +17°C° 0 mm 2 mps 740 mmHg 67%
    20:00 +17°C° 0 mm 2 mps 740 mmHg 67%
    21:00 +17°C° 0 mm 3 mps 740 mmHg 68%
    22:00 +17°C° 0 mm 3 mps 740 mmHg 68%
    23:00 +17°C° 0.1 mm 4 mps 740 mmHg 75%
    Show more